Regional Weather Roundup
Issued by NWS Jackson, KY

Home | Current Version | Previous Version | Graphics & Text | Print | Product List | Glossary On
Versions: 1 2 3 4 5 6 7 8 9 10 11 12 13 14 15 16 17 18 19 20 21 22 23 24 25 26 27 28 29 30 31 32 33 34 35 36 37 38 39 40 41 42 43 44 45 46 47 48 49 50
000
ASUS43 KJKL 201019
RWRJKL

EAST KENTUCKY HOURLY WEATHER ROUNDUP
NATIONAL WEATHER SERVICE JACKSON KY
600 AM EDT SUN APR 20 2014

NOTE: "FAIR" INDICATES FEW OR NO CLOUDS BELOW 12,000 FEET WITH
NO SIGNIFICANT WEATHER AND/OR OBSTRUCTIONS TO VISIBILITY.

* THESE REPORTS ARE NOT UNDER NWS QUALITY CONTROL AND MAY NOT
  REPORT WEATHER SUCH AS PRECIPITATION AND FOG.

KYZ079-080-083-085-087-088-110-112-115-119-120-201100
...EASTERN KENTUCKY...

CITY           SKY/WX    TMP DP  RH WIND       PRES   REMARKS
JACKSON        MOCLDY    53  31  42 NE5       30.22R
LONDON         PTCLDY    45  37  73 CALM      30.22R
SOMERSET*      CLEAR     43  36  75 CALM      30.23R
MONTICELLO*    CLEAR     38  36  92 CALM      30.23R
MIDDLESBORO*   MOCLDY    43  41  92 CALM      30.24R
HARLAN APT*    MOSUNNY   45  39  81 CALM      30.22R
BLACK MTN*       N/A     45  34  65 SW3         N/A
PIKEVILLE APT* CLEAR     55  37  50 SE3       30.23R
BIG SANDY*     MOSUNNY   50  37  60 E5        30.23R
ASHLAND*       CLEAR     43  36  75 W3        30.24
MOREHEAD APT*  MOSUNNY   52  30  43 MISG      30.26R
$$

KYZ035-036-041-042-044-050-067-078-099-201100
...CENTRAL KENTUCKY...

CITY           SKY/WX    TMP DP  RH WIND       PRES   REMARKS
MT STERLING*   CLEAR     43  36  75 E6        30.24R
FLEMING/MASON* CLEAR     46  32  57 NE6       30.25S
DANVILLE*      CLEAR     41  36  81 CALM      30.23R
LEXINGTON      CLEAR     47  35  63 E7        30.22R
FRANKFORT      CLEAR     43  36  76 CALM      30.22R
$$

KYZ091>093-OHZ055-061-077-WVZ005-015-034-035-042-201100
...SOUTHERN OHIO/WEST VIRGINIA...

CITY           SKY/WX    TMP DP  RH WIND       PRES   REMARKS
COVINGTON      PTCLDY    45  34  65 N6        30.25R
COLUMBUS       PTCLDY    46  29  51 CALM      30.28R
DAYTON         PTCLDY    38  32  79 CALM      30.28S
WILMINGTON     CLEAR     42  32  67 NE8       30.27R
HUNTINGTON     PTCLDY    47  34  60 N3        30.23R
CHARLESTON     PTCLDY    45  38  76 CALM      30.24R HAZE
PINEVILLE*     PTCLDY    42  41  95 MISG      30.30R
BECKLEY        MOCLDY    47  35  63 SE5       30.25S
BLUEFIELD      MOCLDY    49  35  58 E6        30.26S
$$

VAZ002-007-008-TNZ017-027-036-066-071-201100
...SOUTHWEST VIRGINIA/EAST TENNESSEE...

CITY           SKY/WX    TMP DP  RH WIND       PRES   REMARKS
WISE*          PTCLDY    50  34  53 CALM      30.25R
ABINGDON*      CLEAR     48  38  67 E3        30.24R
BRISTOL        PTCLDY    47  36  65 CALM      30.23R
KNOXVILLE      FOG       46  45  96 CALM      30.21R VSB 3/4
OAK RIDGE      MOCLDY    45  43  93 CALM      30.23R
CROSSVILLE     CLEAR     43  38  82 CALM      30.23R
NASHVILLE      PTCLDY    47  43  86 S3        30.19S
$$

...KEY TO REMARKS...
VSB - VISIBILITY IN MILES
WCI - WIND CHILL INDEX
HX  - HEAT INDEX

$$



USA.gov is the U.S. government's official web portal to all federal, state and local government web resources and services.